Location: ?
(35.3544°N, 139.4507°E)
Time: 00:21:29
(UTC+00:00)

CZ-2C R/B - Pass Details

Date: 03 August 2024
Orbit: 665 x 777 km, 98.4° (Epoch: 18 September)

Event Time Altitude Azimuth Distance (km) Brightness Sun altitude
Rises 17:54:17 0° 18° (NNE) 3,249 6.7 -21.4°
Reaches altitude 10° 17:56:40 10° 23° (NNE) 2,326 5.9 -21.1°
Maximum altitude 18:01:42 53° 100° (E) 948 3.1 -20.3°
Enters shadow 18:05:29 17° 173° (S) 1,862 4.2 -19.7°
